CW8822 Caguas PR US current weather conditions

sailwx.info

Wind from 052 at 2 knots gusting 8

Air temperature 24.4° C
Dewpoint 18.1° C

Last reported at 2015-Mar-03 17:38 UTC.
Time now 2015-Mar-03 18:53 UTC

Location: N 18°12' W 066°01'.
View on Google Maps.

See reports from other nearby stations

  
Tides and Currents Weather Stations Pressure Air Temp Water Temp Dewpoint Dewpoint Depression Visibility Wind Speed Wind Dir Waves Ship Positions
date/time (UTC)wind fromknots sea level pressurealtimeterstation pressurevisibilityair tempwater tempwave heightnotes
2015-Mar-03 17:38 052 2 gusting 8 24.4
2015-Mar-03 17:23 072 0 gusting 8 25.0
2015-Mar-03 17:08 054 0 gusting 5 25.6
2015-Mar-03 16:53 038 1 gusting 5 25.0
2015-Mar-03 16:38 054 0 gusting 4 23.9
2015-Mar-03 16:23 080 0 gusting 7 23.3
2015-Mar-03 16:08 085 3 gusting 9 22.8
2015-Mar-03 15:53 081 2 gusting 13 22.2
2015-Mar-03 15:38 135 22.8
2015-Mar-03 15:23 043 5 gusting 12 23.3
2015-Mar-03 15:08 005 2 gusting 7 24.4
2015-Mar-03 14:53 023 24.4
2015-Mar-03 14:38 328 22.8
2015-Mar-03 14:23 059 22.2
2015-Mar-03 14:08 063 5 gusting 12 23.9
2015-Mar-03 13:53 336 2 gusting 5 25.0
2015-Mar-03 13:38 355 24.4
2015-Mar-03 13:23 046 1 gusting 5 24.4
2015-Mar-03 13:08 063 0 gusting 3 23.9
2015-Mar-03 12:53 204 23.3
2015-Mar-03 12:38 204 22.2
2015-Mar-03 12:23 176 21.7
2015-Mar-03 12:08 272 21.1
2015-Mar-03 11:53 244 20.6
2015-Mar-03 11:38 131 20.0
2015-Mar-03 11:23 229 1 gusting 3 20.0
2015-Mar-03 11:08 206 0 gusting 2 18.9
2015-Mar-03 10:53 223 18.9
2015-Mar-03 10:38 170 19.4
2015-Mar-03 10:23 170 20.0
2015-Mar-03 10:08 170 20.6
2015-Mar-03 09:53 170 20.6
2015-Mar-03 09:38 170 20.6
2015-Mar-03 09:23 170 20.6
2015-Mar-03 09:08 170 20.6
2015-Mar-03 08:53 170 20.6
2015-Mar-03 08:38 170 0 gusting 2 20.0
2015-Mar-03 08:23 170 20.6
2015-Mar-03 08:08 170 20.6
2015-Mar-03 07:53 170 0 gusting 2 20.0
2015-Mar-03 07:38 170 20.0
2015-Mar-03 07:23 170 0 gusting 2 20.0
2015-Mar-03 07:08 170 0 gusting 2 20.0
2015-Mar-03 06:53 170 20.0
2015-Mar-03 06:38 170 20.6
2015-Mar-03 06:23 170 20.6
2015-Mar-03 06:08 170 20.6
2015-Mar-03 05:53 170 20.6
2015-Mar-03 05:38 170 20.6
2015-Mar-03 05:23 170 20.6
2015-Mar-03 05:08 170 0 gusting 1 20.6
2015-Mar-03 04:52 170 21.1
2015-Mar-03 04:37 170 21.1
2015-Mar-03 04:22 170 20.6
2015-Mar-03 04:07 170 21.1
2015-Mar-03 03:52 170 21.1
2015-Mar-03 03:37 170 21.1
2015-Mar-03 03:22 170 21.1
2015-Mar-03 03:07 170 21.7
2015-Mar-03 02:52 170 21.1
2015-Mar-03 02:37 170 21.1
2015-Mar-03 02:22 171 21.1
2015-Mar-03 02:07 171 0 gusting 2 21.1
2015-Mar-03 01:52 171 0 gusting 4 21.7
2015-Mar-03 01:37 098 0 gusting 2 21.7
2015-Mar-03 01:22 098 21.7
2015-Mar-03 01:07 098 21.7
2015-Mar-03 00:52 098 21.7
2015-Mar-03 00:37 098 21.7
2015-Mar-03 00:22 098 21.7
2015-Mar-03 00:07 098 21.7
2015-Mar-02 23:52 098 21.7
2015-Mar-02 23:37 098 22.2
2015-Mar-02 23:22 098 0 gusting 4 22.2
2015-Mar-02 23:07 026 22.8
2015-Mar-02 22:52 011 0 gusting 4 22.8
2015-Mar-02 22:37 014 2 gusting 8 22.8
2015-Mar-02 22:22 042 0 gusting 6 22.8
2015-Mar-02 22:07 025 0 gusting 6 23.3
2015-Mar-02 21:52 151 1 gusting 9 23.3
2015-Mar-02 21:37 034 1 gusting 7 23.9
2015-Mar-02 21:22 064 1 gusting 6 25.0
2015-Mar-02 21:07 046 24.4
2015-Mar-02 20:52 019 0 gusting 5 24.4
2015-Mar-02 20:37 036 2 gusting 8 26.1
2015-Mar-02 20:22 075 27.8
2015-Mar-02 20:08 066 1 gusting 6 27.2
2015-Mar-02 19:51 180 0 gusting 6 27.2
2015-Mar-02 19:37 053 27.8
2015-Mar-02 19:20 148 0 gusting 5 27.8
2015-Mar-02 19:06 063 27.8
2015-Mar-02 18:51 145 1 gusting 6 26.7
2015-Mar-02 18:37 082 1 gusting 6 26.7
2015-Mar-02 18:20 140 0 gusting 2 26.1
2015-Mar-02 18:06 092 1 gusting 8 26.1
2015-Mar-02 17:51 115 2 gusting 7 26.1
2015-Mar-02 17:35 355 0 gusting 11 26.1
2015-Mar-02 17:27 062 2 gusting 11 25.0
2015-Mar-02 17:05 081 0 gusting 6 24.4
2015-Mar-02 16:51 069 2 gusting 9 24.4
2015-Mar-02 16:36 068 1 gusting 9 24.4
2015-Mar-02 16:20 051 3 gusting 12 25.0
2015-Mar-02 16:05 106 1 gusting 12 26.7
2015-Mar-02 15:51 078 4 gusting 8 26.7
2015-Mar-02 15:35 094 2 gusting 6 26.7
2015-Mar-02 15:20 036 2 gusting 8 25.6
2015-Mar-02 15:05 040 5 gusting 13 25.6
2015-Mar-02 14:49 009 25.0
2015-Mar-02 14:35 300 23.9
2015-Mar-02 14:20 300 23.3
2015-Mar-02 14:04 277 1 gusting 5 23.3
2015-Mar-02 13:50 355 22.8
2015-Mar-02 13:35 317 23.3
2015-Mar-02 13:19 148 0 gusting 2 22.8
2015-Mar-02 13:04 148 22.2
2015-Mar-02 12:50 178 0 gusting 3 21.7
2015-Mar-02 12:34 178 22.2
2015-Mar-02 12:19 178 21.7
2015-Mar-02 12:04 186 21.1
2015-Mar-02 11:49 248 0 gusting 4 20.6
2015-Mar-02 11:33 271 20.6
2015-Mar-02 11:18 179 0 gusting 3 20.0
2015-Mar-02 11:03 218 0 gusting 2 20.0
2015-Mar-02 10:48 218 20.0
2015-Mar-02 10:33 219 1 gusting 4 20.0
2015-Mar-02 10:18 218 1 gusting 4 20.0
2015-Mar-02 10:03 085 0 gusting 4 20.0
2015-Mar-02 09:48 085 0 gusting 2 20.0
2015-Mar-02 09:33 085 20.6
2015-Mar-02 09:18 084 1 gusting 4 20.0
2015-Mar-02 09:03 084 20.6
2015-Mar-02 08:48 084 20.6
2015-Mar-02 08:33 085 20.6
2015-Mar-02 08:18 085 20.6
2015-Mar-02 08:03 084 20.6
2015-Mar-02 07:48 085 20.6
2015-Mar-02 07:33 084 20.6
2015-Mar-02 07:18 084 20.6
2015-Mar-02 07:03 084 20.6
2015-Mar-02 06:48 085 0 gusting 2 20.6
2015-Mar-02 06:33 084 21.1
2015-Mar-02 06:18 084 21.1
2015-Mar-02 06:03 084 21.1
2015-Mar-02 05:48 084 21.1
2015-Mar-02 05:33 084 21.1
2015-Mar-02 05:18 084 21.1
2015-Mar-02 05:03 084 21.1
2015-Mar-02 04:48 084 21.1
2015-Mar-02 04:33 084 21.1
2015-Mar-02 04:18 084 21.1
2015-Mar-02 04:03 084 21.1
2015-Mar-02 03:48 084 21.1
2015-Mar-02 03:33 084 21.1
2015-Mar-02 03:18 084 21.1
2015-Mar-02 03:03 084 21.1
2015-Mar-02 02:48 084 21.1
2015-Mar-02 02:33 084 21.1
2015-Mar-02 02:18 084 21.1
2015-Mar-02 02:03 084 21.7
2015-Mar-02 01:48 084 21.7
2015-Mar-02 01:33 084 21.7
2015-Mar-02 01:18 084 21.7
2015-Mar-02 01:03 084 21.7
2015-Mar-02 00:48 084 21.7
2015-Mar-02 00:33 084 21.7
2015-Mar-02 00:18 084 21.7
2015-Mar-02 00:03 084 21.7
2015-Mar-01 23:48 084 22.2
2015-Mar-01 23:33 084 22.2
2015-Mar-01 23:18 084 22.2
2015-Mar-01 23:03 084 22.2
2015-Mar-01 22:48 084 22.2
2015-Mar-01 22:33 040 22.8
2015-Mar-01 22:18 126 23.9
2015-Mar-01 22:02 040 0 gusting 5 23.9
2015-Mar-01 21:47 037 23.9
2015-Mar-01 21:32 115 24.4
2015-Mar-01 21:17 042 1 gusting 10 24.4
2015-Mar-01 21:02 038 2 gusting 7 25.0
2015-Mar-01 20:47 040 1 gusting 5 25.6
2015-Mar-01 20:32 040 25.0
2015-Mar-01 20:17 080 0 gusting 6 24.4
2015-Mar-01 20:02 121 1 gusting 8 24.4
2015-Mar-01 19:47 036 0 gusting 8 24.4
2015-Mar-01 19:32 044 1 gusting 5 23.3
2015-Mar-01 19:17 042 1 gusting 6 23.3
2015-Mar-01 19:02 355 2 gusting 7 23.9
2015-Mar-01 18:47 009 0 gusting 4 24.4
2015-Mar-01 18:32 076 25.0
2015-Mar-01 18:17 090 0 gusting 5 24.4
2015-Mar-01 18:02 125 0 gusting 7 23.3